Location: Waco, TX
(31.5480°N, 97.1670°W)
Time: 10:53:40

ISS - Pass Details

Date: 09 March 2018
Orbit: 403 x 406 km, 51.6° (Epoch: 21 March)

Event Time Altitude Azimuth Distance (km) Brightness Sun altitude
Rises 08:48:07 0° 327° (NNW) 2,321 -0.4 24.4°
Reaches altitude 10° 08:50:29 10° 342° (NNW) 1,459 -1.3 24.9°
Maximum altitude 08:53:11 23° 38° (NE) 901 -1.7 25.4°
Drops below altitude 10° 08:55:52 10° 94° (E) 1,452 0.4 25.9°
Sets 08:58:12 0° 109° (ESE) 2,308 1.3 26.4°
